NOAA 16 DEB, 41712

Orbit data source: Space-Track

NOAA 16 DEB, 41712 is space debris in SSO originally from a launch on Thu, 21 Sep 2000 UTC launched from the Air Force Western Test Range (AFWTR). Debris objects in space refer to the collection of defunct objects orbiting the Earth. Examples of debris include non-operational satellites, rocket bodies, and fragments generated from explosions, collisions, or faulty payload assembly.

Loading next visibility...
Identifier
41712, 2000-055PS
Orbit
SSO
Country
Flag of USUS
Related business
Manufacturer
Unknown
Mission
Spacecraft
Bus & Motor
Unknown
Mass
Unknown
Launch date (UTC)
2000-09-21 (26 years ago)
Launch vehicle
Unknown
Launch site
Air Force Western Test Range (AFWTR)
Object type
Payload
Rocket body
Debris
Shape & HBR
Unknown shape, 0.1 m
Radar Cross Section
Medium (>0.1 m² and <1 m²)

Expand to show TLE details & history
Last TLE update: 2 days ago

TLE from 2 days ago
0 NOAA 16 DEB
1 41712U 00055PS  26253.20319325  .00014275  00000-0  25580-2 0  9999
2 41712  98.8328  41.3540 0025687 170.0013 190.1705 14.66688329539599
Epoch: 2026-09-10T04:52Z
TLE epoch observation values (Epoch: 2026-09-10T04:52:35.896Z)
Latitude
-0.00005°
Longitude
-21.03983°
Altitude
692.464 km
Speed
7.501 km/s
True Right ascension
02h 45m 24s
True Declination
0° 00' 00"
Sunlit
Object was in full shadow at epoch
Visualization orbit readout
Latitude
Unknown
Longitude
Unknown
Altitude
Unknown
Speed
Unknown
Apparent Right ascension
Unknown
Apparent Declination
Unknown
Sunlit
N/A
Visualization observer readout
Local Sidereal Time
12:59:50
Azimuth
Unknown
Elevation
Unknown
Doppler factor
Unknown
Orbital elements
Apogee altitude
686.864 km
Perigee altitude
650.661 km
Semi-major axis
7,046.9 km
Eccentricity
0.00257
Inclination
98.8328°
RAAN
41.354°
Arg. of periapsis
170.0013°
True anomaly
190.11869°
Mean anomaly
190.1705°
Eccentric anomaly
190.14458°
Mean motion
3.66899 °/min
Orbital period
98.12 mins
BSTAR
0.002558
Loading maneuver chart data...
Computing Atmospheric mass density...
Loading historical data...
Loading historical data...
Loading historical data...
Loading historical data...
Loading historical data...
Loading historical data...
Loading historical data...

Documentation

Showing up to 5 results
|